User: anonymous   Login
Location: Mentone
(34.5413°N, 85.5351°W)
Time: 07:38:10
(UTC-05:00)
Language:

ADEOS Rocket - Orbit

View from above orbital plane
View from above orbital plane
View from above satellite
View from above satellite

Ground track
Ground track

The orbit data is extracted from the following two-line orbital elements,

1 24279U 96046C   16146.53145994  .00000013  00000-0  61827-4 0  9999
2 24279  98.7004 133.4610 0299768 197.2537 273.5723 13.47049478972056
Epoch (UTC): 25 May 2016 12:45:18
Eccentricity: 0.0299768
inclination: 98.7004°
perigee height: 859 km
apogee height: 1307 km
right ascension of ascending node: 133.4610°
argument of perigee: 197.2537°
revolutions per day: 13.47049478
mean anomaly at epoch: 273.5723°
orbit number at epoch: 97205

The dashed part of the orbit path shows where the satellite is in the earth's shadow,  

DLR